Showing default

USA 271, 41745

Orbit data source: Space-Track

USA 271, 41745 is a payload satellite owned by USAF AFSPC (US) in GEO that was launched on Fri, 19 Aug 2016 UTC via a DELTA 4M+(4,2) launch vehicle from the Air Force Eastern Test Range (AFETR). Payloads include a variety of satellites, spacecraft, and rockets equipped with specific instruments for various scientific and technological missions. These include communications satellites like Starlink; space stations such as the ISS; scientific satellites like the Hubble; Earth observation satellites from companies like Planet Labs, Umbra, and HawkEye 360; GPS; miniature CubeSats for education and research; and military/defense satellites.

Not visible in the next 10 days
USA 271 details
Identifier
41745, 2016-052B
Orbit
GEO
Last TLE update6 days ago
Origin
Flag of USUSAF AFSPC (US)
ManufacturerOATK SSG
MissionOperational Defense Classified
Bus & MotorGEOSTAR-1, AOCS
Mass500 kg wet, 500 kg dry
Launch date (UTC)
2016-08-19 (8 years ago)
Launch vehicle
DELTA 4M+(4,2)
Launch site
Air Force Eastern Test Range (AFETR)
Object type
Payload
Rocket body
Debris
Shape & HBRBox + 2 Pan, 5 m
Radar Cross Section7.621 m²

Expand to show TLE details & history

TLE from 6 days ago
0 USA 271
1 41745U 16052B   24355.40856079 -.00000352  00000-0  00000+0 0  9993
2 41745   2.7744  84.1513 0001061 354.8917 280.2365  1.00153013 22468
Epoch: 2024-12-20T09:48Z
Definitive object data (Epoch: 2024-12-20T09:48:19.652Z)
Latitude-2.76967°
Longitude122.72454°
Altitude35,819.035 km
Speed3.074 km/s
True Right ascension23h 57m 07s
True Declination-2° 46' 01"
Sunlit
Object was in daylight at TLE epoch
Visualization TLE readout
Latitude1.21597°
Longitude-127.20052°
Altitude35,816.331 km
Speed3.074 km/s
Apparent Right ascension07h 00m 02s
Apparent Declination-3° 58' 10"
Sunlit
Object is in daylight
Visualization observer readout
Local Sidereal Time16:17:04
Azimuth303.56° NW
Elevation-38.62°
Doppler factor1
Orbital elements
Apogee altitude35,825.467 km
Perigee altitude35,816.513 km
Semi-major axis42,199.127 km
Eccentricity0.0001061
Inclination2.7744°
RAAN84.1513°
Arg. of periapsis354.8917°
True anomaly280.22454°
Mean anomaly280.2365°
Eccentric anomaly280.23052°
Mean motion0.25037 °/min
BSTARUnknown
Orbital period1437.85 mins
Loading historical data...
41745 neighbors
Authenticating...
Loading maneuver chart data...
Loading historical data...
Loading historical data...
Loading historical data...
Loading historical data...
Loading historical data...
Loading historical data...
Loading historical data...
Other satellites on launch #52 in the year 2016 (2016-08-19 UTC)

USA 271 Visibility forecast

Observer location: undefined°, undefined

USA 271 is not visible in the next 10 days
Span
Click to sort rows by Start time (UTC) header in descending order
Start Az.
Max El. time (UTC)
Max El. Az.
Max El.
End time (UTC)
End Az.
|